Location: Bowden
(51.9167°N, 114.0333°W)
Time: 09:34:38
(UTC+00:00)

Envisat - Pass Details

Date: 14 December 2021
Orbit: 764 x 766 km, 98.2° (Epoch: 28 January)

Event Time Altitude Azimuth Distance (km) Brightness Sun altitude
Rises 10:59:56 0° 30° (NNE) 3,246 6.7 -41.1°
Reaches altitude 10° 11:03:55 10° 61° (ENE) 2,312 6.1 -40.5°
Maximum altitude 11:05:48 12° 83° (E) 2,175 6.0 -40.2°
Drops below altitude 10° 11:07:41 10° 105° (ESE) 2,305 6.0 -39.9°
Sets 11:11:38 0° 137° (SE) 3,223 6.6 -39.4°
